FW9064 Weather Reports


Display with metric or nautical units.
time (UTC)temp
F
wind
direction
speed
MPH
gust
MPH
rain 1hr
in
rain 24hr
in
rain mn
in
humidity
%
barometer
mb
20260831024430 76 111 0.0 0.0 0.00 0.00 0.00 95 1019.1
20260831023925 76 110 0.0 0.0 0.00 0.00 0.00 94 1018.9
20260831023423 76 110 0.0 0.0 0.00 0.00 0.00 94 1019.1
20260831022919 76 111 0.0 0.0 0.00 0.00 0.00 94 1019.2
20260831022417 76 112 0.0 0.0 0.00 0.00 0.00 93 1019.1
20260831021912 76 111 0.0 0.0 0.00 0.00 0.00 93 1019.0
20260831021412 77 111 0.0 0.0 0.00 0.00 0.00 93 1019.1
20260831020908 77 111 0.0 0.0 0.00 0.00 0.00 92 1019.1
20260831020407 77 111 0.0 0.0 0.00 0.00 0.00 92 1019.0
20260831015902 77 112 0.0 0.0 0.00 0.00 0.00 92 1019.0
20260831015358 77 112 0.0 0.0 0.00 0.00 0.00 92 1019.0
20260831014853 77 112 0.0 0.0 0.00 0.00 0.00 92 1018.9
20260831014347 77 112 0.0 0.0 0.00 0.00 0.00 91 1018.7
20260831013843 78 112 0.0 0.0 0.00 0.00 0.00 91 1018.7
20260831013338 78 112 0.0 0.0 0.00 0.00 0.00 90 1018.8
20260831012832 78 111 0.0 0.0 0.00 0.00 0.00 90 1018.5
20260831012328 78 112 0.0 0.0 0.00 0.00 0.00 89 1018.7
20260831011822 79 112 0.0 0.0 0.00 0.00 0.00 89 1018.4
20260831011317 79 112 0.0 0.0 0.00 0.00 0.00 89 1018.4
20260831010813 79 111 0.0 0.0 0.00 0.00 0.00 88 1018.4
20260831010312 80 112 0.0 0.0 0.00 0.00 0.00 87 1018.3
20260831005808 80 112 0.0 0.0 0.00 0.00 0.00 86 1018.1
20260831005306 80 112 0.0 0.0 0.00 0.00 0.00 85 1018.3
20260831004758 80 112 0.0 0.0 0.00 0.00 0.00 84 1017.9
20260831004254 81 112 0.0 0.0 0.00 0.00 0.00 83 1018.2
20260831003749 81 112 0.0 0.0 0.00 0.00 0.00 83 1018.3
20260831003245 82 112 0.0 0.0 0.00 0.00 0.00 82 1018.1
20260831002744 82 112 0.0 0.0 0.00 0.00 0.00 81 1018.1
20260831002239 82 112 0.0 0.0 0.00 0.00 0.00 80 1018.0
20260831001735 83 112 0.0 0.0 0.00 0.00 0.00 79 1018.2
20260831001230 83 112 0.0 0.0 0.00 0.00 0.00 79 1018.0
20260831000727 84 112 0.0 0.0 0.00 0.00 0.00 77 1017.9
20260831000222 84 113 0.0 0.0 0.00 0.00 0.00 76 1018.0
20260830235721 85 113 0.0 0.0 0.00 0.00 0.00 74 1018.1
20260830235216 85 113 0.0 0.0 0.00 0.00 0.00 73 1017.9
20260830234710 86 116 0.0 0.0 0.00 0.00 0.00 73 1018.0
20260830234207 86 107 0.0 0.0 0.00 0.00 0.00 69 1017.9
20260830233702 87 112 0.0 0.0 0.00 0.00 0.00 70 1018.1
20260830233157 87 118 0.0 0.0 0.00 0.00 0.00 69 1017.8
20260830232653 87 115 0.0 0.0 0.00 0.00 0.00 68 1017.9
20260830232149 88 106 0.0 0.0 0.00 0.00 0.00 67 1017.8
20260830231645 88 114 0.0 0.0 0.00 0.00 0.00 66 1017.8
20260830231144 88 114 0.0 0.0 0.00 0.00 0.00 65 1018.0
20260830230639 89 119 0.0 0.0 0.00 0.00 0.00 64 1017.8
20260830230139 89 112 0.0 0.0 0.00 0.00 0.00 64 1017.9
20260830225634 89 113 0.0 0.0 0.00 0.00 0.00 64 1017.7
20260830225129 89 107 0.0 0.0 0.00 0.00 0.00 63 1017.8
20260830224628 89 113 2.0 3.0 0.00 0.00 0.00 62 1017.4
20260830224124 89 96 0.0 0.0 0.00 0.00 0.00 62 1017.7
20260830223621 89 101 1.0 2.0 0.00 0.00 0.00 61 1017.6
20260830223120 90 103 1.0 1.0 0.00 0.00 0.00 63 1017.6
20260830222615 90 140 0.0 0.0 0.00 0.00 0.00 62 1017.6
20260830222111 90 116 0.0 0.0 0.00 0.00 0.00 61 1017.5
20260830221606 90 127 2.0 3.0 0.00 0.00 0.00 60 1017.4
20260830221102 90 108 0.0 0.0 0.00 0.00 0.00 61 1017.7
20260830220557 91 99 3.0 5.0 0.00 0.00 0.00 58 1017.7
20260830220056 91 92 1.0 2.0 0.00 0.00 0.00 58 1017.7
20260830215555 91 114 0.0 0.0 0.00 0.00 0.00 59 1017.8
20260830215049 91 109 0.0 0.0 0.00 0.00 0.00 60 1017.9
20260830214545 90 116 0.0 0.0 0.00 0.00 0.00 61 1018.0
20260830214039 91 117 0.0 0.0 0.00 0.00 0.00 59 1017.8
20260830213534 91 117 0.0 0.0 0.00 0.00 0.00 59 1017.9
20260830213029 91 105 0.0 1.0 0.00 0.00 0.00 59 1017.9
20260830212525 91 114 2.0 3.0 0.00 0.00 0.00 59 1017.9
20260830212020 91 106 1.0 1.0 0.00 0.00 0.00 61 1017.8
20260830211515 91 114 1.0 1.0 0.00 0.00 0.00 61 1018.0
20260830211015 91 99 1.0 2.0 0.00 0.00 0.00 59 1018.0
20260830210514 91 116 1.0 2.0 0.00 0.00 0.00 60 1018.0
20260830210009 91 111 0.0 1.0 0.00 0.00 0.00 60 1018.2
20260830205506 91 92 1.0 1.0 0.00 0.00 0.00 61 1018.0
20260830205003 91 144 0.0 0.0 0.00 0.00 0.00 62 1018.2
20260830204501 91 107 0.0 0.0 0.00 0.00 0.00 62 1018.3
20260830203955 91 123 2.0 2.0 0.00 0.00 0.00 61 1018.2
20260830203452 91 125 0.0 1.0 0.00 0.00 0.00 61 1018.3
20260830202951 91 104 2.0 3.0 0.00 0.00 0.00 61 1018.5
20260830202446 91 116 0.0 0.0 0.00 0.00 0.00 60 1018.5
20260830201943 91 136 1.0 2.0 0.00 0.00 0.00 63 1018.4
20260830201441 90 104 0.0 0.0 0.00 0.00 0.00 62 1018.4
20260830200937 90 117 0.0 0.0 0.00 0.00 0.00 64 1018.6
20260830200436 90 97 2.0 2.0 0.00 0.00 0.00 63 1018.8
20260830195931 90 113 0.0 0.0 0.00 0.00 0.00 65 1018.7
20260830195426 90 136 1.0 1.0 0.00 0.00 0.00 64 1018.7
20260830194925 91 114 1.0 1.0 0.00 0.00 0.00 61 1018.8
20260830194424 91 115 0.0 0.0 0.00 0.00 0.00 61 1019.1
20260830193924 91 98 0.0 0.0 0.00 0.00 0.00 60 1018.9
20260830193423 91 120 1.0 2.0 0.00 0.00 0.00 61 1018.9
20260830192919 91 113 0.0 0.0 0.00 0.00 0.00 61 1019.1
20260830192414 92 118 1.0 1.0 0.00 0.00 0.00 61 1019.1
20260830191909 91 113 1.0 1.0 0.00 0.00 0.00 61 1019.1
20260830191408 91 153 0.0 1.0 0.00 0.00 0.00 61 1019.2
20260830190904 91 99 2.0 2.0 0.00 0.00 0.00 62 1019.1
20260830190359 91 93 2.0 3.0 0.00 0.00 0.00 60 1019.3
20260830185858 91 116 0.0 0.0 0.00 0.00 0.00 64 1019.3
20260830185354 92 106 1.0 1.0 0.00 0.00 0.00 62 1019.5
20260830184848 92 119 0.0 1.0 0.00 0.00 0.00 63 1019.5
20260830184348 92 125 1.0 1.0 0.00 0.00 0.00 62 1019.6
20260830183843 93 102 1.0 1.0 0.00 0.00 0.00 61 1019.5
20260830183343 92 119 0.0 0.0 0.00 0.00 0.00 60 1019.7
20260830182838 92 104 2.0 2.0 0.00 0.00 0.00 61 1019.9
20260830182334 91 119 0.0 0.0 0.00 0.00 0.00 63 1019.9
20260830181830 90 115 0.0 0.0 0.00 0.00 0.00 65 1019.8
20260830181325 89 84 0.0 0.0 0.00 0.00 0.00 67 1020.1
20260830180824 89 116 1.0 1.0 0.00 0.00 0.00 66 1020.3
20260830180319 89 104 0.0 1.0 0.00 0.00 0.00 69 1020.3
20260830175818 90 114 0.0 1.0 0.00 0.00 0.00 67 1020.3
20260830175313 92 116 2.0 3.0 0.00 0.00 0.00 63 1020.7
20260830174809 89 106 1.0 1.0 0.00 0.00 0.00 66 1020.3
20260830174304 88 108 1.0 1.0 0.00 0.00 0.00 70 1020.4
20260830173803 89 109 0.0 0.0 0.00 0.00 0.00 68 1020.5
20260830173259 91 109 2.0 3.0 0.00 0.00 0.00 67 1020.7
20260830172755 92 100 1.0 3.0 0.00 0.00 0.00 61 1020.4
20260830172252 91 118 2.0 3.0 0.00 0.00 0.00 63 1020.6
20260830171747 91 136 0.0 1.0 0.00 0.00 0.00 64 1020.8
20260830171242 90 130 0.0 0.0 0.00 0.00 0.00 67 1020.9
20260830170737 90 146 1.0 1.0 0.00 0.00 0.00 66 1020.8
20260830170236 90 76 2.0 2.0 0.00 0.00 0.00 68 1020.8
20260830165735 89 136 2.0 2.0 0.00 0.00 0.00 68 1020.9
20260830165231 88 115 1.0 2.0 0.00 0.00 0.00 68 1020.7
20260830164727 88 106 0.0 1.0 0.00 0.00 0.00 70 1021.0
20260830164223 88 98 0.0 0.0 0.00 0.00 0.00 69 1021.1
20260830163720 88 79 1.0 1.0 0.00 0.00 0.00 70 1021.2
20260830163215 88 57 2.0 3.0 0.00 0.00 0.00 72 1021.1
20260830162709 86 112 0.0 1.0 0.00 0.00 0.00 74 1021.5
20260830162205 87 111 0.0 0.0 0.00 0.00 0.00 72 1021.3
20260830161701 89 92 0.0 0.0 0.00 0.00 0.00 71 1021.3
20260830161154 89 121 0.0 0.0 0.00 0.00 0.00 69 1021.6
20260830160651 88 117 0.0 0.0 0.00 0.00 0.00 70 1021.5
20260830160145 89 117 0.0 1.0 0.00 0.00 0.00 70 1021.3
20260830155642 88 209 1.0 3.0 0.00 0.00 0.00 70 1021.6
20260830155137 89 174 1.0 1.0 0.00 0.00 0.00 69 1021.5
20260830154632 87 125 0.0 0.0 0.00 0.00 0.00 72 1021.4
20260830154128 86 84 0.0 1.0 0.00 0.00 0.00 74 1021.4
20260830153625 86 137 1.0 1.0 0.00 0.00 0.00 75 1021.4
20260830153124 86 100 2.0 2.0 0.00 0.00 0.00 74 1021.5
20260830152623 86 109 1.0 2.0 0.00 0.00 0.00 75 1021.5
20260830152123 85 109 1.0 1.0 0.00 0.00 0.00 75 1021.4
20260830151618 84 133 2.0 3.0 0.00 0.00 0.00 78 1021.4
20260830151113 84 114 1.0 2.0 0.00 0.00 0.00 77 1021.5
20260830150612 84 96 2.0 3.0 0.00 0.00 0.00 79 1021.5
20260830150108 85 129 0.0 0.0 0.00 0.00 0.00 78 1021.6
20260830145606 84 111 0.0 1.0 0.00 0.00 0.00 79 1021.6
20260830145101 84 89 2.0 2.0 0.00 0.00 0.00 79 1021.4
20260830144557 83 113 0.0 1.0 0.00 0.00 0.00 82 1021.7
20260830144053 84 106 0.0 0.0 0.00 0.00 0.00 81 1021.6
20260830143549 83 134 1.0 2.0 0.00 0.00 0.00 82 1021.7
20260830143047 83 112 0.0 0.0 0.00 0.00 0.00 83 1021.4
20260830142542 83 96 1.0 2.0 0.00 0.00 0.00 83 1021.6
20260830142037 84 117 0.0 1.0 0.00 0.00 0.00 83 1021.7
20260830141532 83 115 0.0 1.0 0.00 0.00 0.00 83 1021.8
20260830141027 82 110 0.0 0.0 0.00 0.00 0.00 85 1021.8
20260830140527 80 101 0.0 0.0 0.00 0.00 0.00 88 1021.6
20260830140023 81 96 0.0 1.0 0.00 0.00 0.00 88 1021.8
20260830135518 80 107 0.0 0.0 0.00 0.00 0.00 89 1021.6
20260830135013 80 87 1.0 1.0 0.00 0.00 0.00 90 1021.9
20260830134509 79 100 0.0 1.0 0.00 0.00 0.00 90 1021.6
20260830134004 78 112 0.0 0.0 0.00 0.00 0.00 93 1021.8
20260830133459 77 101 0.0 0.0 0.00 0.00 0.00 95 1021.6
20260830132954 76 100 1.0 2.0 0.00 0.00 0.00 98 1021.6
20260830132451 75 113 0.0 0.0 0.00 0.00 0.00 99 1021.7
20260830131950 75 114 2.0 3.0 0.00 0.00 0.00 99 1021.7
20260830131449 75 108 0.0 0.0 0.00 0.00 0.00 99 1021.5
20260830130944 74 110 0.0 0.0 0.00 0.00 0.00 99 1021.5
20260830130440 74 110 0.0 0.0 0.00 0.00 0.00 99 1021.5
20260830125938 74 110 0.0 0.0 0.00 0.00 0.00 99 1021.7
20260830125434 74 110 0.0 0.0 0.00 0.00 0.00 99 1021.5
20260830124932 73 111 0.0 0.0 0.00 0.00 0.00 99 1021.3
20260830124427 73 111 0.0 0.0 0.00 0.00 0.00 99 1021.2
20260830123924 72 110 0.0 0.0 0.00 0.00 0.00 99 1021.1
20260830123420 72 110 0.0 0.0 0.00 0.00 0.00 99 1021.0
20260830122918 72 111 0.0 0.0 0.00 0.00 0.00 99 1021.2
20260830122412 71 111 0.0 0.0 0.00 0.00 0.00 99 1020.9
20260830121913 71 111 0.0 0.0 0.00 0.00 0.00 99 1021.1
20260830121408 71 114 0.0 0.0 0.00 0.00 0.00 99 1020.9
20260830120903 71 111 0.0 0.0 0.00 0.00 0.00 99 1020.9
20260830120358 71 110 0.0 0.0 0.00 0.00 0.00 99 1021.0
20260830115854 71 110 0.0 0.0 0.00 0.00 0.00 99 1020.9
20260830115350 70 111 0.0 0.0 0.00 0.00 0.00 99 1020.9
20260830114845 70 110 0.0 0.0 0.00 0.00 0.00 99 1020.8
20260830114342 70 110 0.0 0.0 0.00 0.00 0.00 99 1020.7
20260830113836 70 110 0.0 0.0 0.00 0.00 0.00 99 1020.7
20260830113331 70 111 0.0 0.0 0.00 0.00 0.00 99 1020.7
20260830112827 70 112 0.0 0.0 0.00 0.00 0.00 99 1020.5
20260830112322 70 111 0.0 0.0 0.00 0.00 0.00 99 1020.6
20260830111818 70 111 0.0 0.0 0.00 0.00 0.00 99 1020.6
20260830111314 70 111 0.0 0.0 0.00 0.00 0.00 99 1020.6
20260830110814 70 112 0.0 0.0 0.00 0.00 0.00 99 1020.3
20260830110310 70 111 0.0 0.0 0.00 0.00 0.00 99 1020.3
20260830105809 70 110 0.0 0.0 0.00 0.00 0.00 99 1020.3
20260830105306 70 110 0.0 0.0 0.00 0.00 0.00 99 1020.2
20260830104801 70 111 0.0 0.0 0.00 0.00 0.00 99 1020.3
20260830104258 70 112 0.0 0.0 0.00 0.00 0.00 99 1020.2
20260830103757 70 111 0.0 0.0 0.00 0.00 0.00 99 1020.1
20260830103253 70 110 0.0 0.0 0.00 0.00 0.00 99 1020.1
20260830102751 70 110 0.0 0.0 0.00 0.00 0.00 99 1020.1
20260830102247 70 110 0.0 0.0 0.00 0.00 0.00 99 1020.0
20260830101743 70 110 0.0 0.0 0.00 0.00 0.00 99 1019.8
20260830101238 70 110 0.0 0.0 0.00 0.00 0.00 99 1019.9
20260830100737 70 110 0.0 0.0 0.00 0.00 0.00 99 1019.7
20260830100232 70 111 0.0 0.0 0.00 0.00 0.00 99 1019.5
20260830095731 71 110 0.0 0.0 0.00 0.00 0.00 99 1019.7
20260830095227 71 111 0.0 0.0 0.00 0.00 0.00 99 1019.8
20260830094722 71 111 0.0 0.0 0.00 0.00 0.00 99 1019.6
20260830094219 71 111 0.0 0.0 0.00 0.00 0.00 99 1019.6
20260830093713 71 111 0.0 0.0 0.00 0.00 0.00 99 1019.8
20260830093210 71 112 0.0 0.0 0.00 0.00 0.00 99 1019.7
20260830092709 71 111 0.0 0.0 0.00 0.00 0.00 99 1019.7
20260830092206 71 111 0.0 0.0 0.00 0.00 0.00 99 1019.7
20260830091702 71 111 0.0 0.0 0.00 0.00 0.00 99 1019.6
20260830091201 71 110 0.0 0.0 0.00 0.00 0.00 99 1019.6
20260830090700 71 108 0.0 0.0 0.00 0.00 0.00 99 1019.5
20260830090156 71 112 0.0 0.0 0.00 0.00 0.00 99 1019.7
20260830085655 71 112 0.0 0.0 0.00 0.00 0.00 99 1019.8
20260830085151 71 110 0.0 0.0 0.00 0.00 0.00 99 1019.6
20260830084647 71 111 0.0 0.0 0.00 0.00 0.00 99 1019.6
20260830084142 71 111 0.0 0.0 0.00 0.00 0.00 99 1019.5
20260830083637 71 111 0.0 0.0 0.00 0.00 0.00 99 1019.3
20260830083132 71 110 0.0 0.0 0.00 0.00 0.00 99 1019.3
20260830082627 71 111 0.0 0.0 0.00 0.00 0.00 99 1019.3
20260830082123 71 110 0.0 0.0 0.00 0.00 0.00 99 1019.2
20260830081618 71 111 0.0 0.0 0.00 0.00 0.00 99 1019.2
20260830081117 71 110 0.0 0.0 0.00 0.00 0.00 99 1019.4
20260830080612 72 110 0.0 0.0 0.00 0.00 0.00 99 1019.1
20260830080108 72 113 0.0 0.0 0.00 0.00 0.00 99 1019.3
20260830075607 71 110 0.0 0.0 0.00 0.00 0.00 99 1019.4
20260830075103 72 110 0.0 0.0 0.00 0.00 0.00 99 1019.6
20260830074558 72 110 0.0 0.0 0.00 0.00 0.00 99 1019.3
20260830074054 72 110 0.0 0.0 0.00 0.00 0.00 99 1019.3
20260830073550 72 110 0.0 0.0 0.00 0.00 0.00 99 1019.2
20260830073045 72 110 0.0 0.0 0.00 0.00 0.00 99 1019.4
20260830072540 72 110 0.0 0.0 0.00 0.00 0.00 99 1019.4
20260830072040 72 110 0.0 0.0 0.00 0.00 0.00 99 1019.4
20260830071536 72 110 0.0 0.0 0.00 0.00 0.00 99 1019.3
20260830071033 72 110 0.0 0.0 0.00 0.00 0.00 99 1019.3
20260830070528 72 110 0.0 0.0 0.00 0.00 0.00 99 1019.4
20260830070023 72 110 0.0 0.0 0.00 0.00 0.00 99 1019.5
20260830065522 72 112 0.0 0.0 0.00 0.00 0.00 99 1019.6
20260830065020 72 110 0.0 0.0 0.00 0.00 0.00 99 1019.6
20260830064515 72 110 0.0 0.0 0.00 0.00 0.00 99 1019.6
20260830064010 72 110 0.0 0.0 0.00 0.00 0.00 99 1019.7
20260830063509 72 110 0.0 0.0 0.00 0.00 0.00 99 1019.6
20260830063004 73 110 0.0 0.0 0.00 0.00 0.00 99 1019.7
20260830062503 73 111 0.0 0.0 0.00 0.00 0.00 99 1019.7
20260830061958 73 112 0.0 0.0 0.00 0.00 0.00 99 1019.7
20260830061453 73 114 0.0 0.0 0.00 0.00 0.00 99 1019.7
20260830060949 73 111 0.0 0.0 0.00 0.00 0.00 99 1019.8
20260830060446 73 109 0.0 0.0 0.00 0.00 0.00 99 1019.9
20260830055941 73 109 0.0 0.0 0.00 0.00 0.00 99 1019.9
20260830055436 73 109 0.0 0.0 0.00 0.00 0.00 99 1019.8
20260830054932 73 109 0.0 0.0 0.00 0.00 0.00 99 1020.0
20260830054428 73 110 0.0 0.0 0.00 0.00 0.00 99 1019.8
20260830053923 73 111 0.0 0.0 0.00 0.00 0.00 99 1020.1
20260830053419 73 110 0.0 0.0 0.00 0.00 0.00 99 1019.9
20260830052917 73 110 0.0 0.0 0.00 0.00 0.00 99 1020.0
20260830052413 73 110 0.0 0.0 0.00 0.00 0.00 99 1020.1
20260830051908 73 110 0.0 0.0 0.00 0.00 0.00 99 1020.1
20260830051404 73 111 0.0 0.0 0.00 0.00 0.00 99 1020.1
20260830050903 74 110 0.0 0.0 0.00 0.00 0.00 99 1020.2
20260830050358 74 110 0.0 0.0 0.00 0.00 0.00 99 1020.1
20260830045856 74 110 0.0 0.0 0.00 0.00 0.00 99 1020.2
20260830045351 74 111 0.0 0.0 0.00 0.00 0.00 99 1020.0
20260830044850 74 109 0.0 0.0 0.00 0.00 0.00 99 1020.0
20260830044346 74 110 0.0 0.0 0.00 0.00 0.00 99 1020.0
20260830043841 74 111 0.0 0.0 0.00 0.00 0.00 99 1020.0
20260830043336 74 109 0.0 0.0 0.00 0.00 0.00 98 1020.0
20260830042833 74 110 0.0 0.0 0.00 0.00 0.00 98 1020.2
20260830042328 74 110 0.0 0.0 0.00 0.00 0.00 98 1019.8
20260830041827 74 110 0.0 0.0 0.00 0.00 0.00 98 1020.1
20260830041326 74 110 0.0 0.0 0.00 0.00 0.00 98 1020.2
20260830040822 75 110 0.0 0.0 0.00 0.00 0.00 98 1020.5
20260830040318 75 110 0.0 0.0 0.00 0.00 0.00 98 1020.1
20260830035817 75 111 0.0 0.0 0.00 0.00 0.00 98 1020.0
20260830035316 75 110 0.0 0.0 0.00 0.00 0.00 98 1020.2
20260830034812 75 110 0.0 0.0 0.00 0.00 0.00 98 1020.0
20260830034311 75 110 0.0 0.0 0.00 0.00 0.00 97 1020.1
20260830033808 75 110 0.0 0.0 0.00 0.00 0.00 97 1020.1
20260830033302 75 110 0.0 0.0 0.00 0.00 0.00 97 1020.2
20260830032757 75 110 0.0 0.0 0.00 0.00 0.00 97 1020.2
20260830032251 75 110 0.0 0.0 0.00 0.00 0.00 97 1020.0
20260830031746 75 110 0.0 0.0 0.00 0.00 0.00 97 1020.0
20260830031241 76 111 0.0 0.0 0.00 0.00 0.00 97 1020.1
20260830030737 76 110 0.0 0.0 0.00 0.00 0.00 97 1020.1
20260830030233 76 110 0.0 0.0 0.00 0.00 0.00 97 1020.0
20260830025732 76 110 0.0 0.0 0.00 0.00 0.00 96 1020.0
20260830025225 76 110 0.0 0.0 0.00 0.00 0.00 96 1019.8